| time (UTC) | temp F | wind direction | speed MPH | gust MPH | rain 1hr in | rain 24hr in | rain mn in | humidity % | barometer mb |
| 20260901134053 | 64 | 201 | 0.0 | 1.0 | 0.03 | 0.58 | 0.58 | 96 | 1016.8 |
| 20260901133525 | 64 | 202 | 0.0 | 0.0 | 0.05 | 0.58 | 0.58 | 96 | 1016.9 |
| 20260901133047 | 64 | 201 | 0.0 | 1.0 | 0.09 | 0.58 | 0.58 | 96 | 1016.8 |
| 20260901132549 | 64 | 201 | 0.0 | 1.0 | 0.12 | 0.58 | 0.58 | 96 | 1016.8 |
| 20260901132052 | 64 | 201 | 0.0 | 1.0 | 0.17 | 0.57 | 0.57 | 96 | 1016.7 |
| 20260901131538 | 64 | 201 | 0.0 | 1.0 | 0.19 | 0.57 | 0.57 | 96 | 1016.8 |
| 20260901131044 | 64 | 201 | 0.0 | 2.0 | 0.20 | 0.57 | 0.57 | 96 | 1016.7 |
| 20260901130603 | 64 | 192 | 0.0 | 2.0 | 0.20 | 0.57 | 0.57 | 96 | 1016.8 |
| 20260901130028 | 64 | 159 | 0.0 | 2.0 | 0.20 | 0.57 | 0.57 | 96 | 1016.7 |
| 20260901125535 | 64 | 87 | 0.0 | 2.0 | 0.20 | 0.57 | 0.57 | 96 | 1016.6 |
| 20260901125038 | 64 | 24 | 1.0 | 2.0 | 0.20 | 0.57 | 0.57 | 96 | 1016.6 |
| 20260901124530 | 64 | 165 | 0.0 | 0.0 | 0.21 | 0.57 | 0.57 | 96 | 1016.9 |
| 20260901124034 | 64 | 165 | 0.0 | 0.0 | 0.19 | 0.55 | 0.55 | 96 | 1016.8 |
| 20260901123538 | 64 | 165 | 0.0 | 2.0 | 0.16 | 0.52 | 0.52 | 96 | 1016.9 |
| 20260901123036 | 65 | 165 | 0.0 | 2.0 | 0.13 | 0.49 | 0.49 | 96 | 1017.0 |
| 20260901122540 | 65 | 232 | 0.0 | 2.0 | 0.11 | 0.46 | 0.46 | 96 | 1016.9 |
| 20260901122059 | 65 | 232 | 0.0 | 2.0 | 0.05 | 0.40 | 0.40 | 96 | 1016.9 |
| 20260901121528 | 65 | 232 | 1.0 | 2.0 | 0.03 | 0.38 | 0.38 | 96 | 1016.8 |
| 20260901121032 | 64 | 231 | 0.0 | 1.0 | 0.03 | 0.37 | 0.37 | 96 | 1016.5 |
| 20260901120040 | 64 | 231 | 0.0 | 1.0 | 0.10 | 0.37 | 0.37 | 96 | 1016.4 |
| 20260901115539 | 64 | 231 | 0.0 | 1.0 | 0.13 | 0.37 | 0.37 | 96 | 1016.4 |
| 20260901115042 | 64 | 232 | 0.0 | 0.0 | 0.15 | 0.37 | 0.37 | 96 | 1016.4 |
| 20260901114545 | 64 | 232 | 0.0 | 0.0 | 0.16 | 0.36 | 0.36 | 96 | 1016.5 |
| 20260901114028 | 64 | 232 | 0.0 | 1.0 | 0.22 | 0.36 | 0.36 | 96 | 1016.4 |
| 20260901113532 | 64 | 232 | 0.0 | 1.0 | 0.24 | 0.36 | 0.36 | 96 | 1016.4 |
| 20260901113034 | 64 | 232 | 0.0 | 0.0 | 0.25 | 0.36 | 0.36 | 96 | 1016.4 |
| 20260901112537 | 64 | 232 | 0.0 | 0.0 | 0.25 | 0.35 | 0.35 | 96 | 1016.3 |
| 20260901112036 | 64 | 232 | 0.0 | 1.0 | 0.27 | 0.35 | 0.35 | 96 | 1016.3 |
| 20260901111539 | 64 | 232 | 0.0 | 2.0 | 0.28 | 0.35 | 0.35 | 96 | 1016.3 |
| 20260901111042 | 64 | 232 | 0.0 | 2.0 | 0.28 | 0.34 | 0.34 | 96 | 1016.2 |
| 20260901110603 | 64 | 233 | 0.0 | 1.0 | 0.23 | 0.29 | 0.29 | 96 | 1016.1 |
| 20260901110045 | 64 | 233 | 0.0 | 0.0 | 0.20 | 0.26 | 0.26 | 96 | 1016.4 |
| 20260901105551 | 64 | 233 | 0.0 | 0.0 | 0.19 | 0.24 | 0.24 | 96 | 1016.6 |
| 20260901105032 | 64 | 233 | 0.0 | 0.0 | 0.18 | 0.22 | 0.22 | 96 | 1016.4 |
| 20260901104555 | 64 | 233 | 0.0 | 0.0 | 0.16 | 0.20 | 0.20 | 96 | 1016.4 |
| 20260901104112 | 64 | 233 | 0.0 | 0.0 | 0.10 | 0.14 | 0.14 | 96 | 1016.6 |
| 20260901103536 | 64 | 233 | 0.0 | 0.0 | 0.08 | 0.12 | 0.12 | 96 | 1016.3 |
| 20260901103037 | 64 | 232 | 0.0 | 0.0 | 0.07 | 0.11 | 0.11 | 96 | 1016.2 |
| 20260901102543 | 64 | 232 | 0.0 | 0.0 | 0.06 | 0.10 | 0.10 | 96 | 1016.1 |
| 20260901102026 | 64 | 232 | 0.0 | 0.0 | 0.04 | 0.08 | 0.08 | 96 | 1016.2 |
| 20260901101528 | 64 | 232 | 0.0 | 0.0 | 0.03 | 0.07 | 0.07 | 96 | 1016.2 |
| 20260901101031 | 64 | 232 | 0.0 | 0.0 | 0.02 | 0.06 | 0.06 | 96 | 1016.2 |
| 20260901100536 | 64 | 232 | 0.0 | 0.0 | 0.02 | 0.06 | 0.06 | 96 | 1016.1 |
| 20260901100040 | 64 | 232 | 0.0 | 0.0 | 0.03 | 0.06 | 0.06 | 96 | 1016.1 |
| 20260901095543 | 64 | 232 | 0.0 | 0.0 | 0.02 | 0.05 | 0.05 | 96 | 1016.0 |
| 20260901095026 | 64 | 232 | 0.0 | 0.0 | 0.01 | 0.04 | 0.04 | 96 | 1016.0 |
| 20260901094529 | 64 | 232 | 0.0 | 0.0 | 0.01 | 0.04 | 0.04 | 96 | 1016.0 |
| 20260901094028 | 64 | 232 | 0.0 | 0.0 | 0.01 | 0.04 | 0.04 | 96 | 1016.1 |
| 20260901093532 | 64 | 232 | 0.0 | 0.0 | 0.01 | 0.04 | 0.04 | 96 | 1016.1 |
| 20260901093036 | 64 | 232 | 0.0 | 0.0 | 0.01 | 0.04 | 0.04 | 96 | 1016.2 |
| 20260901092554 | 64 | 232 | 0.0 | 0.0 | 0.01 | 0.04 | 0.04 | 96 | 1016.3 |
| 20260901092056 | 64 | 232 | 0.0 | 0.0 | 0.01 | 0.04 | 0.04 | 96 | 1016.2 |
| 20260901091538 | 64 | 232 | 0.0 | 0.0 | 0.01 | 0.04 | 0.04 | 96 | 1016.2 |
| 20260901091037 | 64 | 232 | 0.0 | 0.0 | 0.01 | 0.04 | 0.04 | 96 | 1016.3 |
| 20260901090545 | 64 | 232 | 0.0 | 0.0 | 0.02 | 0.04 | 0.04 | 96 | 1016.3 |
| 20260901090027 | 64 | 232 | 0.0 | 0.0 | 0.01 | 0.03 | 0.03 | 96 | 1016.5 |
| 20260901085530 | 64 | 232 | 0.0 | 0.0 | 0.01 | 0.03 | 0.03 | 96 | 1016.6 |
| 20260901085033 | 64 | 232 | 0.0 | 0.0 | 0.01 | 0.03 | 0.03 | 96 | 1016.6 |
| 20260901084551 | 64 | 232 | 0.0 | 0.0 | 0.02 | 0.03 | 0.03 | 96 | 1016.6 |
| 20260901084041 | 64 | 232 | 0.0 | 0.0 | 0.02 | 0.03 | 0.03 | 96 | 1016.6 |
| 20260901083541 | 64 | 232 | 0.0 | 0.0 | 0.02 | 0.03 | 0.03 | 96 | 1016.6 |
| 20260901083042 | 64 | 232 | 0.0 | 0.0 | 0.03 | 0.03 | 0.03 | 96 | 1016.5 |
| 20260901082527 | 64 | 232 | 0.0 | 0.0 | 0.03 | 0.03 | 0.03 | 96 | 1016.7 |
| 20260901082030 | 64 | 232 | 0.0 | 0.0 | 0.03 | 0.03 | 0.03 | 96 | 1016.7 |
| 20260901081533 | 63 | 232 | 0.0 | 0.0 | 0.03 | 0.03 | 0.03 | 96 | 1016.8 |
| 20260901081111 | 64 | 232 | 0.0 | 0.0 | 0.03 | 0.03 | 0.03 | 96 | 1016.9 |
| 20260901080550 | 63 | 232 | 0.0 | 0.0 | 0.02 | 0.02 | 0.02 | 96 | 1016.8 |
| 20260901080051 | 63 | 232 | 0.0 | 0.0 | 0.02 | 0.02 | 0.02 | 96 | 1016.9 |
| 20260901075533 | 63 | 232 | 0.0 | 0.0 | 0.02 | 0.02 | 0.02 | 96 | 1016.9 |
| 20260901075036 | 63 | 232 | 0.0 | 0.0 | 0.02 | 0.02 | 0.02 | 96 | 1016.9 |
| 20260901074539 | 63 | 232 | 0.0 | 0.0 | 0.01 | 0.01 | 0.01 | 96 | 1017.0 |
| 20260901074025 | 63 | 232 | 0.0 | 0.0 | 0.01 | 0.01 | 0.01 | 96 | 1017.1 |
| 20260901073532 | 63 | 232 | 0.0 | 0.0 | 0.01 | 0.01 | 0.01 | 96 | 1017.1 |
| 20260901073050 | 63 | 232 | 0.0 | 0.0 | 0.00 | 0.00 | 0.00 | 96 | 1017.0 |
| 20260901072535 | 63 | 232 | 0.0 | 0.0 | 0.00 | 0.00 | 0.00 | 96 | 1017.1 |
| 20260901072038 | 63 | 232 | 0.0 | 0.0 | 0.00 | 0.00 | 0.00 | 96 | 1017.0 |
| 20260901071556 | 63 | 232 | 0.0 | 0.0 | 0.00 | 0.00 | 0.00 | 96 | 1017.0 |
| 20260901071058 | 63 | 232 | 0.0 | 0.0 | 0.00 | 0.00 | 0.00 | 96 | 1017.1 |
| 20260901070534 | 63 | 232 | 0.0 | 0.0 | 0.00 | 0.00 | 0.00 | 96 | 1017.0 |
| 20260901070050 | 63 | 232 | 0.0 | 0.0 | 0.00 | 0.00 | 0.00 | 96 | 1017.1 |
| 20260901065551 | 63 | 232 | 0.0 | 0.0 | 0.00 | 0.00 | 0.00 | 96 | 1017.2 |
| 20260901065054 | 63 | 232 | 0.0 | 0.0 | 0.00 | 0.00 | 0.00 | 96 | 1017.3 |
| 20260901064537 | 63 | 232 | 0.0 | 0.0 | 0.00 | 0.00 | 0.00 | 96 | 1017.3 |
| 20260901064041 | 63 | 232 | 0.0 | 0.0 | 0.00 | 0.00 | 0.00 | 96 | 1017.5 |
| 20260901063545 | 63 | 232 | 0.0 | 0.0 | 0.00 | 0.00 | 0.00 | 96 | 1017.5 |
| 20260901063047 | 63 | 232 | 0.0 | 0.0 | 0.00 | 0.00 | 0.00 | 96 | 1017.6 |
| 20260901062529 | 63 | 232 | 0.0 | 0.0 | 0.00 | 0.00 | 0.00 | 96 | 1017.7 |
| 20260901062028 | 63 | 232 | 0.0 | 0.0 | 0.00 | 0.00 | 0.00 | 96 | 1017.7 |
| 20260901061534 | 63 | 232 | 0.0 | 0.0 | 0.00 | 0.00 | 0.00 | 96 | 1017.7 |
| 20260901061040 | 63 | 232 | 0.0 | 0.0 | 0.00 | 0.00 | 0.00 | 96 | 1017.7 |
| 20260901060543 | 63 | 232 | 0.0 | 0.0 | 0.00 | 0.00 | 0.00 | 96 | 1017.6 |
| 20260901060025 | 63 | 232 | 0.0 | 0.0 | 0.00 | 0.00 | 0.00 | 96 | 1017.5 |
| 20260901055528 | 63 | 232 | 0.0 | 0.0 | 0.00 | 0.00 | 0.00 | 96 | 1017.6 |
| 20260901055049 | 63 | 232 | 0.0 | 0.0 | 0.00 | 0.00 | 0.00 | 96 | 1017.6 |
| 20260901054550 | 63 | 232 | 0.0 | 0.0 | 0.00 | 0.00 | 0.00 | 95 | 1017.6 |
| 20260901054055 | 63 | 232 | 0.0 | 0.0 | 0.00 | 0.00 | 0.00 | 95 | 1017.5 |
| 20260901053527 | 63 | 232 | 0.0 | 0.0 | 0.00 | 0.00 | 0.00 | 95 | 1017.4 |
| 20260901053044 | 63 | 232 | 0.0 | 0.0 | 0.00 | 0.00 | 0.00 | 95 | 1017.5 |
| 20260901052547 | 63 | 232 | 0.0 | 0.0 | 0.00 | 0.00 | 0.00 | 96 | 1017.9 |
| 20260901052050 | 63 | 232 | 0.0 | 0.0 | 0.00 | 0.00 | 0.00 | 95 | 1018.2 |
| 20260901051539 | 63 | 232 | 0.0 | 0.0 | 0.00 | 0.00 | 0.00 | 95 | 1018.2 |
| 20260901051101 | 63 | 232 | 0.0 | 0.0 | 0.00 | 0.00 | 0.00 | 95 | 1018.2 |
| 20260901050545 | 63 | 232 | 0.0 | 0.0 | 0.00 | 0.00 | 0.00 | 95 | 1018.2 |
| 20260901050049 | 63 | 232 | 0.0 | 0.0 | 0.00 | 0.00 | 0.00 | 95 | 1018.2 |
| 20260901045531 | 63 | 232 | 0.0 | 0.0 | 0.00 | 0.00 | 0.00 | 95 | 1018.2 |
| 20260901045049 | 63 | 232 | 0.0 | 0.0 | 0.00 | 0.00 | 0.00 | 95 | 1018.3 |
| 20260901044551 | 63 | 232 | 0.0 | 0.0 | 0.00 | 0.00 | 0.00 | 95 | 1018.2 |
| 20260901044029 | 63 | 232 | 0.0 | 0.0 | 0.00 | 0.00 | 0.00 | 95 | 1018.2 |
| 20260901043534 | 63 | 232 | 0.0 | 0.0 | 0.00 | 0.00 | 0.00 | 95 | 1018.1 |
| 20260901043040 | 63 | 232 | 0.0 | 0.0 | 0.00 | 0.00 | 0.00 | 95 | 1018.1 |
| 20260901042526 | 63 | 232 | 0.0 | 0.0 | 0.00 | 0.00 | 0.00 | 95 | 1018.1 |
| 20260901042029 | 63 | 232 | 0.0 | 0.0 | 0.00 | 0.00 | 0.00 | 95 | 1018.1 |
| 20260901041607 | 63 | 232 | 0.0 | 0.0 | 0.00 | 0.00 | 0.00 | 95 | 1018.0 |
| 20260901041045 | 63 | 232 | 0.0 | 0.0 | 0.00 | 0.00 | 0.00 | 95 | 1018.1 |
| 20260901040529 | 63 | 232 | 0.0 | 0.0 | 0.00 | 0.00 | 0.00 | 95 | 1018.1 |
| 20260901040031 | 63 | 232 | 0.0 | 0.0 | 0.00 | 0.00 | 0.00 | 95 | 1018.1 |
| 20260901035534 | 63 | 232 | 0.0 | 0.0 | 0.00 | 0.00 | 0.00 | 95 | 1018.1 |
| 20260901035037 | 63 | 232 | 0.0 | 0.0 | 0.00 | 0.00 | 0.00 | 95 | 1018.2 |
| 20260901034540 | 64 | 232 | 0.0 | 0.0 | 0.00 | 0.00 | 0.00 | 95 | 1018.3 |
| 20260901034026 | 64 | 232 | 0.0 | 0.0 | 0.00 | 0.00 | 0.00 | 95 | 1018.4 |
| 20260901033533 | 64 | 232 | 0.0 | 0.0 | 0.00 | 0.00 | 0.00 | 95 | 1018.5 |
| 20260901033031 | 64 | 232 | 0.0 | 0.0 | 0.00 | 0.00 | 0.00 | 95 | 1018.3 |
| 20260901032537 | 64 | 232 | 0.0 | 0.0 | 0.00 | 0.00 | 0.00 | 95 | 1018.5 |
| 20260901032040 | 64 | 232 | 0.0 | 0.0 | 0.00 | 0.00 | 0.00 | 95 | 1018.5 |
| 20260901031542 | 64 | 232 | 0.0 | 0.0 | 0.00 | 0.00 | 0.00 | 95 | 1018.4 |
| 20260901031101 | 64 | 232 | 0.0 | 0.0 | 0.00 | 0.00 | 0.00 | 95 | 1018.5 |
| 20260901030547 | 64 | 232 | 0.0 | 0.0 | 0.00 | 0.00 | 0.00 | 95 | 1018.5 |
| 20260901030045 | 64 | 232 | 0.0 | 0.0 | 0.00 | 0.00 | 0.00 | 95 | 1018.5 |
| 20260901025527 | 64 | 232 | 0.0 | 0.0 | 0.00 | 0.00 | 0.00 | 95 | 1018.5 |
| 20260901025029 | 64 | 232 | 0.0 | 0.0 | 0.00 | 0.00 | 0.00 | 94 | 1018.6 |
| 20260901024552 | 64 | 232 | 0.0 | 0.0 | 0.00 | 0.00 | 0.00 | 95 | 1018.7 |
| 20260901024036 | 64 | 232 | 0.0 | 0.0 | 0.00 | 0.00 | 0.00 | 95 | 1018.8 |
| 20260901023541 | 64 | 232 | 0.0 | 0.0 | 0.00 | 0.00 | 0.00 | 95 | 1018.8 |
| 20260901023056 | 64 | 232 | 0.0 | 0.0 | 0.00 | 0.00 | 0.00 | 95 | 1018.8 |
| 20260901022532 | 64 | 232 | 0.0 | 0.0 | 0.00 | 0.00 | 0.00 | 94 | 1018.8 |
| 20260901022041 | 64 | 232 | 0.0 | 0.0 | 0.00 | 0.00 | 0.00 | 94 | 1018.8 |
| 20260901021543 | 64 | 232 | 0.0 | 0.0 | 0.00 | 0.00 | 0.00 | 94 | 1018.8 |
| 20260901021024 | 64 | 232 | 0.0 | 0.0 | 0.00 | 0.00 | 0.00 | 94 | 1018.8 |
| 20260901020534 | 65 | 232 | 0.0 | 0.0 | 0.00 | 0.00 | 0.00 | 94 | 1018.7 |
| 20260901020037 | 65 | 232 | 0.0 | 0.0 | 0.00 | 0.00 | 0.00 | 94 | 1018.7 |
| 20260901015541 | 65 | 232 | 0.0 | 0.0 | 0.00 | 0.00 | 0.00 | 94 | 1018.6 |
| 20260901015039 | 65 | 232 | 0.0 | 0.0 | 0.00 | 0.00 | 0.00 | 94 | 1018.5 |
| 20260901014543 | 65 | 232 | 0.0 | 0.0 | 0.00 | 0.00 | 0.00 | 94 | 1018.5 |
| 20260901014025 | 65 | 232 | 0.0 | 0.0 | 0.00 | 0.00 | 0.00 | 93 | 1018.6 |
| 20260901013532 | 65 | 232 | 0.0 | 0.0 | 0.00 | 0.00 | 0.00 | 93 | 1018.6 |
| 20260901013036 | 65 | 232 | 0.0 | 0.0 | 0.00 | 0.00 | 0.00 | 93 | 1018.7 |
| 20260901012540 | 65 | 232 | 0.0 | 0.0 | 0.00 | 0.00 | 0.00 | 93 | 1018.7 |
| 20260901012043 | 66 | 232 | 0.0 | 0.0 | 0.00 | 0.00 | 0.00 | 92 | 1018.8 |
| 20260901011545 | 66 | 232 | 0.0 | 0.0 | 0.00 | 0.00 | 0.00 | 93 | 1018.8 |
| 20260901011103 | 66 | 232 | 0.0 | 0.0 | 0.00 | 0.00 | 0.00 | 93 | 1018.8 |
| 20260901010549 | 66 | 232 | 0.0 | 0.0 | 0.00 | 0.00 | 0.00 | 92 | 1018.9 |
| 20260901010050 | 66 | 232 | 0.0 | 0.0 | 0.00 | 0.01 | 0.00 | 92 | 1018.8 |
| 20260901005553 | 66 | 232 | 0.0 | 0.0 | 0.00 | 0.01 | 0.00 | 92 | 1018.9 |
| 20260901005037 | 66 | 232 | 0.0 | 0.0 | 0.00 | 0.01 | 0.00 | 92 | 1018.8 |
| 20260901004611 | 66 | 232 | 0.0 | 0.0 | 0.00 | 0.01 | 0.00 | 92 | 1018.8 |
| 20260901004052 | 66 | 232 | 0.0 | 0.0 | 0.00 | 0.01 | 0.00 | 92 | 1018.8 |
| 20260901003559 | 66 | 232 | 0.0 | 0.0 | 0.00 | 0.01 | 0.00 | 92 | 1018.8 |
| 20260901003039 | 66 | 232 | 0.0 | 0.0 | 0.00 | 0.01 | 0.00 | 92 | 1018.7 |
| 20260901002545 | 66 | 232 | 0.0 | 0.0 | 0.00 | 0.01 | 0.00 | 92 | 1018.7 |
| 20260901002050 | 66 | 232 | 0.0 | 0.0 | 0.00 | 0.01 | 0.00 | 92 | 1018.6 |
| 20260901001533 | 66 | 232 | 0.0 | 0.0 | 0.00 | 0.01 | 0.00 | 92 | 1018.7 |
| 20260901001054 | 66 | 232 | 0.0 | 0.0 | 0.00 | 0.01 | 0.00 | 92 | 1018.5 |
| 20260901000557 | 67 | 232 | 0.0 | 0.0 | 0.00 | 0.01 | 0.00 | 92 | 1018.6 |
| 20260901000053 | 67 | 232 | 0.0 | 0.0 | 0.00 | 0.05 | 0.00 | 91 | 1018.5 |
| 20260831235555 | 67 | 232 | 0.0 | 0.0 | 0.00 | 0.05 | 0.00 | 91 | 1018.5 |
| 20260831235044 | 67 | 232 | 0.0 | 0.0 | 0.00 | 0.05 | 0.00 | 91 | 1018.5 |
| 20260831234547 | 67 | 232 | 0.0 | 0.0 | 0.00 | 0.05 | 0.00 | 91 | 1018.5 |
| 20260831234026 | 67 | 232 | 0.0 | 0.0 | 0.00 | 0.05 | 0.00 | 91 | 1018.6 |
| 20260831233607 | 67 | 232 | 0.0 | 0.0 | 0.00 | 0.05 | 0.00 | 91 | 1018.6 |
| 20260831233047 | 68 | 232 | 0.0 | 0.0 | 0.00 | 0.05 | 0.00 | 90 | 1018.7 |
| 20260831232553 | 68 | 232 | 0.0 | 0.0 | 0.00 | 0.05 | 0.00 | 90 | 1018.7 |
| 20260831232058 | 68 | 232 | 0.0 | 0.0 | 0.00 | 0.05 | 0.00 | 90 | 1018.7 |
| 20260831231540 | 68 | 232 | 0.0 | 0.0 | 0.00 | 0.05 | 0.00 | 90 | 1018.7 |
| 20260831231039 | 68 | 232 | 0.0 | 0.0 | 0.00 | 0.05 | 0.00 | 89 | 1018.8 |
| 20260831230543 | 68 | 232 | 0.0 | 0.0 | 0.00 | 0.05 | 0.00 | 89 | 1018.8 |
| 20260831230043 | 68 | 232 | 0.0 | 0.0 | 0.00 | 0.05 | 0.00 | 88 | 1018.9 |
| 20260831225525 | 69 | 232 | 0.0 | 0.0 | 0.00 | 0.05 | 0.00 | 88 | 1018.9 |
| 20260831225028 | 69 | 232 | 0.0 | 0.0 | 0.00 | 0.05 | 0.00 | 88 | 1019.0 |
| 20260831224606 | 69 | 232 | 0.0 | 0.0 | 0.00 | 0.05 | 0.00 | 88 | 1018.9 |
| 20260831224044 | 69 | 232 | 0.0 | 0.0 | 0.00 | 0.05 | 0.00 | 87 | 1018.9 |
| 20260831223531 | 69 | 232 | 0.0 | 0.0 | 0.00 | 0.05 | 0.00 | 88 | 1018.9 |
| 20260831223032 | 69 | 232 | 0.0 | 0.0 | 0.00 | 0.05 | 0.00 | 89 | 1018.9 |
| 20260831222554 | 69 | 232 | 0.0 | 0.0 | 0.00 | 0.05 | 0.00 | 89 | 1019.0 |
| 20260831222039 | 69 | 232 | 0.0 | 0.0 | 0.00 | 0.05 | 0.00 | 89 | 1019.0 |
| 20260831221542 | 69 | 232 | 0.0 | 0.0 | 0.00 | 0.05 | 0.00 | 89 | 1019.2 |
| 20260831221058 | 69 | 232 | 0.0 | 0.0 | 0.00 | 0.05 | 0.00 | 90 | 1019.1 |
| 20260831220600 | 68 | 232 | 0.0 | 0.0 | 0.00 | 0.05 | 0.00 | 90 | 1019.1 |
| 20260831220040 | 68 | 232 | 0.0 | 0.0 | 0.00 | 0.05 | 0.00 | 89 | 1019.0 |
| 20260831215542 | 68 | 232 | 0.0 | 0.0 | 0.00 | 0.05 | 0.00 | 90 | 1019.0 |
| 20260831215045 | 68 | 232 | 0.0 | 0.0 | 0.00 | 0.05 | 0.00 | 89 | 1019.0 |
| 20260831214527 | 68 | 232 | 0.0 | 0.0 | 0.00 | 0.05 | 0.00 | 90 | 1019.0 |
| 20260831214030 | 68 | 232 | 0.0 | 0.0 | 0.00 | 0.05 | 0.00 | 90 | 1019.1 |
| 20260831213533 | 68 | 232 | 0.0 | 0.0 | 0.00 | 0.05 | 0.00 | 89 | 1019.0 |
| 20260831213029 | 68 | 232 | 0.0 | 0.0 | 0.00 | 0.05 | 0.00 | 89 | 1019.1 |
| 20260831212532 | 68 | 232 | 0.0 | 0.0 | 0.00 | 0.05 | 0.00 | 89 | 1019.1 |
| 20260831212039 | 68 | 232 | 0.0 | 0.0 | 0.00 | 0.05 | 0.00 | 89 | 1019.1 |
| 20260831211543 | 68 | 232 | 0.0 | 0.0 | 0.00 | 0.05 | 0.00 | 89 | 1019.1 |
| 20260831211100 | 68 | 232 | 0.0 | 0.0 | 0.00 | 0.05 | 0.00 | 89 | 1019.1 |
| 20260831210602 | 68 | 232 | 0.0 | 0.0 | 0.00 | 0.05 | 0.00 | 88 | 1019.1 |
| 20260831210041 | 68 | 232 | 0.0 | 0.0 | 0.00 | 0.05 | 0.00 | 88 | 1019.0 |
| 20260831205544 | 68 | 232 | 0.0 | 0.0 | 0.00 | 0.05 | 0.00 | 89 | 1018.9 |
| 20260831205030 | 68 | 232 | 0.0 | 0.0 | 0.00 | 0.05 | 0.00 | 90 | 1019.1 |
| 20260831204536 | 68 | 232 | 0.0 | 0.0 | 0.00 | 0.05 | 0.00 | 90 | 1019.0 |
| 20260831204039 | 68 | 232 | 0.0 | 0.0 | 0.00 | 0.05 | 0.00 | 90 | 1019.0 |
| 20260831203531 | 68 | 232 | 0.0 | 0.0 | 0.00 | 0.05 | 0.00 | 90 | 1019.0 |
| 20260831203032 | 68 | 232 | 0.0 | 0.0 | 0.00 | 0.05 | 0.00 | 90 | 1019.0 |
| 20260831202535 | 68 | 232 | 0.0 | 0.0 | 0.00 | 0.05 | 0.00 | 89 | 1019.1 |
| 20260831202037 | 69 | 232 | 0.0 | 0.0 | 0.00 | 0.05 | 0.00 | 88 | 1019.1 |
| 20260831201544 | 69 | 232 | 0.0 | 0.0 | 0.00 | 0.05 | 0.00 | 89 | 1019.0 |
| 20260831201030 | 69 | 232 | 0.0 | 0.0 | 0.00 | 0.05 | 0.00 | 88 | 1019.0 |
| 20260831200537 | 69 | 232 | 0.0 | 0.0 | 0.00 | 0.05 | 0.00 | 87 | 1019.1 |
| 20260831200038 | 69 | 232 | 0.0 | 0.0 | 0.00 | 0.05 | 0.00 | 88 | 1019.0 |
| 20260831195541 | 69 | 232 | 0.0 | 0.0 | 0.00 | 0.05 | 0.00 | 87 | 1019.0 |
| 20260831195050 | 69 | 232 | 0.0 | 0.0 | 0.00 | 0.05 | 0.00 | 87 | 1019.2 |
| 20260831194531 | 69 | 232 | 0.0 | 0.0 | 0.00 | 0.05 | 0.00 | 87 | 1019.4 |
| 20260831194049 | 69 | 232 | 0.0 | 0.0 | 0.00 | 0.05 | 0.00 | 86 | 1019.5 |
| 20260831193552 | 69 | 232 | 0.0 | 0.0 | 0.00 | 0.05 | 0.00 | 85 | 1019.6 |
| 20260831193056 | 69 | 232 | 0.0 | 0.0 | 0.00 | 0.05 | 0.00 | 86 | 1019.6 |
| 20260831192558 | 69 | 232 | 0.0 | 0.0 | 0.00 | 0.05 | 0.00 | 84 | 1019.6 |
| 20260831192025 | 70 | 232 | 0.0 | 0.0 | 0.00 | 0.05 | 0.00 | 85 | 1019.6 |
| 20260831191528 | 70 | 232 | 0.0 | 0.0 | 0.00 | 0.05 | 0.00 | 84 | 1019.6 |
| 20260831191027 | 70 | 232 | 0.0 | 0.0 | 0.00 | 0.05 | 0.00 | 83 | 1019.8 |
| 20260831190523 | 70 | 232 | 0.0 | 0.0 | 0.00 | 0.05 | 0.00 | 82 | 1019.8 |
| 20260831190028 | 70 | 232 | 0.0 | 0.0 | 0.00 | 0.05 | 0.00 | 82 | 1019.7 |
| 20260831185601 | 70 | 230 | 0.0 | 0.0 | 0.00 | 0.05 | 0.00 | 80 | 1019.5 |
| 20260831185118 | 71 | 231 | 0.0 | 0.0 | 0.00 | 0.05 | 0.00 | 80 | 1019.6 |
| 20260831184524 | 71 | 230 | 0.0 | 0.0 | 0.00 | 0.05 | 0.00 | 81 | 1019.7 |
| 20260831184038 | 71 | 230 | 0.0 | 0.0 | 0.00 | 0.05 | 0.00 | 80 | 1019.9 |
| 20260831183541 | 71 | 230 | 0.0 | 0.0 | 0.00 | 0.05 | 0.00 | 82 | 1019.9 |
| 20260831183046 | 70 | 230 | 0.0 | 0.0 | 0.00 | 0.05 | 0.00 | 79 | 1019.9 |
| 20260831182527 | 70 | 230 | 0.0 | 0.0 | 0.00 | 0.05 | 0.00 | 78 | 1020.1 |
| 20260831182029 | 70 | 284 | 0.0 | 0.0 | 0.00 | 0.05 | 0.00 | 80 | 1020.0 |
| 20260831181553 | 70 | 288 | 0.0 | 0.0 | 0.00 | 0.05 | 0.00 | 80 | 1019.9 |
| 20260831181035 | 70 | 288 | 0.0 | 0.0 | 0.00 | 0.05 | 0.00 | 82 | 1019.9 |
| 20260831180536 | 70 | 288 | 0.0 | 0.0 | 0.00 | 0.05 | 0.00 | 78 | 1020.0 |
| 20260831180112 | 70 | 288 | 0.0 | 0.0 | 0.00 | 0.05 | 0.00 | 82 | 1020.2 |
| 20260831175534 | 70 | 288 | 0.0 | 0.0 | 0.00 | 0.05 | 0.00 | 82 | 1020.0 |
| 20260831175037 | 70 | 288 | 0.0 | 0.0 | 0.00 | 0.05 | 0.00 | 82 | 1019.9 |
| 20260831174600 | 70 | 288 | 0.0 | 0.0 | 0.00 | 0.05 | 0.00 | 81 | 1019.9 |
| 20260831174042 | 70 | 288 | 0.0 | 1.0 | 0.00 | 0.05 | 0.00 | 79 | 1019.9 |
| 20260831173621 | 70 | 288 | 0.0 | 1.0 | 0.00 | 0.05 | 0.00 | 78 | 1020.0 |
| 20260831173042 | 71 | 288 | 0.0 | 2.0 | 0.00 | 0.05 | 0.00 | 76 | 1020.2 |
| 20260831172544 | 71 | 288 | 1.0 | 2.0 | 0.00 | 0.05 | 0.00 | 77 | 1020.2 |
| 20260831172047 | 71 | 288 | 0.0 | 2.0 | 0.00 | 0.05 | 0.00 | 75 | 1020.4 |
| 20260831171529 | 71 | 288 | 0.0 | 2.0 | 0.00 | 0.05 | 0.00 | 74 | 1020.4 |
| 20260831171035 | 71 | 290 | 0.0 | 1.0 | 0.00 | 0.05 | 0.00 | 79 | 1020.4 |
| 20260831170558 | 70 | 290 | 0.0 | 1.0 | 0.00 | 0.05 | 0.00 | 80 | 1020.4 |
| 20260831170114 | 70 | 290 | 0.0 | 1.0 | 0.00 | 0.05 | 0.00 | 77 | 1020.5 |
| 20260831165555 | 70 | 290 | 0.0 | 1.0 | 0.00 | 0.05 | 0.00 | 78 | 1020.6 |
| 20260831165057 | 70 | 290 | 0.0 | 1.0 | 0.00 | 0.05 | 0.00 | 78 | 1020.5 |
| 20260831164600 | 70 | 290 | 0.0 | 1.0 | 0.00 | 0.05 | 0.00 | 80 | 1020.7 |
| 20260831164042 | 70 | 290 | 0.0 | 0.0 | 0.00 | 0.05 | 0.00 | 82 | 1020.6 |
| 20260831163529 | 70 | 290 | 0.0 | 0.0 | 0.00 | 0.05 | 0.00 | 81 | 1020.6 |
| 20260831163033 | 70 | 290 | 0.0 | 2.0 | 0.00 | 0.05 | 0.00 | 78 | 1020.7 |
| 20260831162536 | 70 | 290 | 0.0 | 2.0 | 0.00 | 0.05 | 0.00 | 77 | 1020.7 |
| 20260831162039 | 70 | 290 | 0.0 | 1.0 | 0.00 | 0.05 | 0.00 | 77 | 1020.7 |
| 20260831161528 | 70 | 290 | 0.0 | 1.0 | 0.00 | 0.05 | 0.00 | 75 | 1020.9 |
| 20260831161031 | 71 | 290 | 0.0 | 2.0 | 0.00 | 0.05 | 0.00 | 75 | 1020.9 |
| 20260831160538 | 71 | 290 | 0.0 | 2.0 | 0.00 | 0.05 | 0.00 | 75 | 1020.9 |
| 20260831160110 | 71 | 293 | 0.0 | 1.0 | 0.00 | 0.05 | 0.00 | 73 | 1020.9 |
| 20260831155550 | 72 | 293 | 0.0 | 2.0 | 0.00 | 0.05 | 0.00 | 71 | 1020.9 |
| 20260831155055 | 72 | 293 | 1.0 | 3.0 | 0.00 | 0.05 | 0.00 | 72 | 1020.8 |
| 20260831154538 | 72 | 303 | 1.0 | 3.0 | 0.00 | 0.05 | 0.00 | 72 | 1021.0 |
| 20260831154044 | 72 | 155 | 1.0 | 2.0 | 0.00 | 0.05 | 0.00 | 74 | 1021.0 |
| 20260831153529 | 71 | 173 | 1.0 | 2.0 | 0.00 | 0.05 | 0.00 | 71 | 1020.8 |
| 20260831153030 | 71 | 188 | 1.0 | 2.0 | 0.00 | 0.05 | 0.00 | 71 | 1020.9 |
| 20260831152539 | 71 | 303 | 1.0 | 2.0 | 0.00 | 0.05 | 0.00 | 71 | 1020.8 |
| 20260831152101 | 70 | 205 | 0.0 | 2.0 | 0.00 | 0.05 | 0.00 | 73 | 1020.9 |
| 20260831151543 | 70 | 203 | 1.0 | 2.0 | 0.00 | 0.05 | 0.00 | 73 | 1020.8 |
| 20260831151026 | 70 | 238 | 1.0 | 2.0 | 0.00 | 0.05 | 0.00 | 75 | 1020.8 |
| 20260831150530 | 70 | 238 | 0.0 | 2.0 | 0.00 | 0.05 | 0.00 | 72 | 1020.8 |
| 20260831150107 | 70 | 239 | 1.0 | 2.0 | 0.00 | 0.05 | 0.00 | 75 | 1020.8 |
| 20260831145549 | 70 | 240 | 0.0 | 1.0 | 0.00 | 0.05 | 0.00 | 76 | 1020.8 |
| 20260831145031 | 70 | 240 | 0.0 | 2.0 | 0.00 | 0.05 | 0.00 | 75 | 1020.8 |
| 20260831144534 | 69 | 217 | 1.0 | 2.0 | 0.00 | 0.05 | 0.00 | 73 | 1020.8 |
| 20260831144037 | 69 | 261 | 0.0 | 2.0 | 0.00 | 0.05 | 0.00 | 77 | 1020.8 |
| 20260831143544 | 69 | 263 | 0.0 | 0.0 | 0.00 | 0.05 | 0.00 | 76 | 1021.0 |
| 20260831143046 | 69 | 263 | 0.0 | 0.0 | 0.00 | 0.05 | 0.00 | 76 | 1020.8 |
| 20260831142529 | 69 | 263 | 0.0 | 0.0 | 0.00 | 0.05 | 0.00 | 76 | 1020.8 |
| 20260831142031 | 69 | 263 | 0.0 | 0.0 | 0.00 | 0.05 | 0.00 | 74 | 1020.7 |
| 20260831141529 | 69 | 263 | 0.0 | 0.0 | 0.00 | 0.05 | 0.00 | 72 | 1020.8 |
| 20260831141107 | 69 | 265 | 0.0 | 0.0 | 0.00 | 0.05 | 0.00 | 75 | 1020.8 |
| 20260831140553 | 69 | 265 | 0.0 | 1.0 | 0.00 | 0.05 | 0.00 | 77 | 1020.9 |
| 20260831140032 | 69 | 265 | 0.0 | 1.0 | 0.00 | 0.05 | 0.00 | 77 | 1020.9 |
| 20260831135535 | 68 | 196 | 0.0 | 0.0 | 0.00 | 0.05 | 0.00 | 79 | 1020.8 |
| 20260831135037 | 68 | 197 | 0.0 | 1.0 | 0.00 | 0.05 | 0.00 | 78 | 1020.7 |
| 20260831134610 | 68 | 196 | 0.0 | 1.0 | 0.00 | 0.05 | 0.00 | 82 | 1020.7 |